Regional Weather Roundup
Issued by NWS

Home | Current Version | Previous Version | Text Only | Print | Product List | Glossary Off
Versions: 1 2 3 4 5 6 7 8 9 10 11 12 13 14 15 16 17 18 19 20 21 22 23 24 25 26 27 28 29 30 31 32 33 34 35 36 37 38 39 40 41 42 43 44 45 46 47 48 49 50

000
ASUS43 KLMK 300710
RWRKY
KENTUCKY REGIONAL WEATHER ROUNDUP
NATIONAL WEATHER SERVICE LOUISVILLE KY
300 AM EDT MON MAY 30 2016

NOTE "FAIR" INDICATES FEW OR NO CLOUDS BELOW 12,000 FEET
WITH NO SIGNIFICANT WEATHER AND/OR OBSTRUCTIONS TO VISIBILITY.

KYZ001>023-026-027-061>063-070>075-300800-
WESTERN AND SOUTH CENTRAL KENTUCKY

CITY           SKY/WX    TMP DP  RH WIND       PRES   REMARKS
PADUCAH        PTCLDY    64  60  87 CALM      30.04S
HENDERSON      MOCLDY    64  61  88 SW3       30.03S
OWENSBORO      CLEAR     67  67 100 CALM      30.04S
HOPKINSVILLE   CLEAR     71  65  80 W3        30.04F
BOWLING GREEN  CLOUDY    70  63  78 CALM      30.05R
GLASGOW        CLOUDY    66  66 100 CALM      30.05R
$$

KYZ024-025-028>034-038-045-046-053-300800-
NORTH CENTRAL KENTUCKY

CITY           SKY/WX    TMP DP  RH WIND       PRES   REMARKS
LOUISVILLE/SDF CLOUDY    71  61  70 SW3       30.03R
LOUISVILLE/LOU CLOUDY    69  62  78 CALM      30.03R
FORT KNOX      CLOUDY    64  61  90 CALM      30.03R
$$

KYZ035>037-039>044-047>052-055>060-089>105-300800-
NORTHEAST KENTUCKY

CITY           SKY/WX    TMP DP  RH WIND       PRES   REMARKS
LEXINGTON      CLOUDY    70  64  81 CALM      30.04R
COVINGTON      MOCLDY    69  65  86 CALM      30.03S
FRANKFORT      CLOUDY    65  61  87 CALM      30.02S
$$

KYZ054-064>069-076>088-106>120-300800-
SOUTHEAST KENTUCKY

CITY           SKY/WX    TMP DP  RH WIND       PRES   REMARKS
JACKSON        MOCLDY    69  64  84 NW6       30.06S
LONDON         MOCLDY    66  62  87 CALM      30.05S
SOMERSET       CLOUDY    63  63 100 CALM      30.06R
MIDDLESBORO    CLOUDY    60  60 100 CALM      30.07F FOG
MONTICELLO     MOSUNNY   66  65  96 NE8       30.06S
$$





USA.gov is the U.S. government's official web portal to all federal, state and local government web resources and services.